Location: Alexandria
(38.8050°N, 77.0470°W)
Time: 12:00:35
(UTC-05:00)

OTV 5 (USA 277) - Pass Details

Date: 17 November 2017
Orbit: 404 x 417 km, 43.0° (Epoch: 07 September)

Event Time Altitude Azimuth Distance (km) Brightness Sun altitude
Exits shadow 05:53:06 20° 296° (WNW) 1,011 ? -11.8°
Maximum altitude 05:55:15 72° 18° (NNE) 425 ? -11.4°
Drops below altitude 10° 05:58:31 10° 104° (ESE) 1,452 ? -10.8°
Sets 06:00:37 0° 107° (ESE) 2,310 ? -10.4°
